Location: Most
(50.5133°N, 13.6207°E)
Time: 09:44:18
(UTC+02:00)

ISS - Pass Details

Date: 16 July 2018
Orbit: 402 x 408 km, 51.6° (Epoch: 17 July)

Event Time Altitude Azimuth Distance (km) Brightness Sun altitude
Exits shadow 00:59:18 32° 106° (ESE) 719 -2.8 -18.0°
Drops below altitude 10° 01:01:27 10° 80° (E) 1,470 -0.9 -18.0°
Sets 01:03:35 0° 74° (ENE) 2,334 0.2 -18.1°
